Weather History for Beaufort, NC

Change the Weather History Date:

Monday, May 6, 2013

  Actual Average Record
Temperature  
Mean Temperature 67 °F -  
Max Temperature 73 °F 74 °F 84 °F (2014)
Min Temperature 62 °F 56 °F 42 °F (1973)
Cooling Degree Days 2    
Growing Degree Days 17 (Base 50)    
Moisture  
Dew Point 62 °F    
Average Humidity 87    
Maximum Humidity 100    
Minimum Humidity 66    
Precipitation  
Precipitation 1.59 in - - ()
Sea Level Pressure  
Sea Level Pressure 29.92 in    
Wind  
Wind Speed 9 mph (SE)    
Max Wind Speed 18 mph    
Max Gust Speed 71 mph    
Visibility 6 miles    
Events Rain    
Averages and records for this station are not official NWS values.
T = Trace of Precipitation, MM = Missing Value Source: NWS Daily Summary

Daily Weather History Graph

Daily Weather History Graph

Search for Another Location

Airport:

Trip Planner

Search our weather history database for the weather conditions in past years. The results will help you decide how hot, cold, wet, or windy it might be!

Date:

Astronomy

May. 06, 2013 Rise Set
Actual Time 6:11 AM EDT 7:55 PM EDT
Civil Twilight 5:43 AM EDT 8:23 PM EDT
Nautical Twilight 5:10 AM EDT 8:56 PM EDT
Astronomical Twilight 4:35 AM EDT 9:31 PM EDT
Moon 4:04 AM EDT (5/6) 5:00 PM EDT (5/6)
Length of Visible Light 14h 39m
Length of Day
13h 44m
Waning Crescent, 11% of the Moon is Illuminated
May 6
Waning Crescent
May 9
New
May 18
First Quarter
May 25
Full
May 31
Last Quarter

Hourly Weather History & Observations

Time (EDT) Temp. Dew Point Humidity Pressure Visibility Wind Dir Wind Speed Gust Speed Precip Events Conditions
12:58 AM 64.0 °F 61.0 °F 90% 29.99 in 10.0 mi East 10.4 mph - 0.02 in   Overcast
1:58 AM 64.0 °F 61.0 °F 90% 29.99 in 10.0 mi ESE 5.8 mph - 0.00 in   Overcast
2:58 AM 64.9 °F 59.0 °F 81% 29.96 in 10.0 mi ESE 8.1 mph - N/A   Mostly Cloudy
3:58 AM 66.0 °F 59.0 °F 78% 29.94 in 10.0 mi SE 9.2 mph - N/A   Partly Cloudy
4:58 AM 66.0 °F 59.0 °F 78% 29.92 in 9.0 mi ESE 12.7 mph - 0.00 in Rain Light Rain
5:58 AM 66.9 °F 57.9 °F 73% 29.94 in 10.0 mi ESE 8.1 mph - 0.01 in   Mostly Cloudy
6:58 AM 66.9 °F 57.9 °F 73% 29.95 in 10.0 mi SE 9.2 mph 18.4 mph N/A   Mostly Cloudy
7:58 AM 68.0 °F 60.1 °F 76% 29.96 in 10.0 mi ESE 10.4 mph 18.4 mph N/A   Scattered Clouds
8:58 AM 70.0 °F 60.1 °F 71% 29.96 in 10.0 mi SE 10.4 mph 17.3 mph N/A   Partly Cloudy
9:58 AM 72.0 °F 62.1 °F 71% 29.97 in 10.0 mi SE 11.5 mph 17.3 mph N/A   Overcast
10:58 AM 71.1 °F 63.0 °F 75% 29.97 in 10.0 mi ESE 10.4 mph - 0.00 in   Overcast
11:58 AM 72.0 °F 62.1 °F 71% 29.96 in 10.0 mi SE 9.2 mph - 0.00 in   Overcast
12:58 PM 72.0 °F 60.1 °F 66% 29.95 in 10.0 mi SE 15.0 mph 23.0 mph N/A   Overcast
1:58 PM 66.9 °F 61.0 °F 81% 29.95 in 7.0 mi SE 10.4 mph - 0.01 in Rain Light Rain
2:58 PM 66.0 °F 62.1 °F 87% 29.94 in 5.0 mi ESE 10.4 mph - 0.08 in Rain Light Rain
3:20 PM 64.4 °F 62.6 °F 94% 29.93 in 1.8 mi ESE 6.9 mph - 0.09 in Rain Heavy Rain
3:38 PM 64.4 °F 62.6 °F 94% 29.92 in 2.0 mi SE 8.1 mph 16.1 mph 0.17 in Rain Rain
3:58 PM 64.0 °F 62.1 °F 93% 29.91 in 1.8 mi ESE 11.5 mph 19.6 mph 0.44 in Rain Heavy Rain
4:05 PM 64.4 °F 62.6 °F 94% 29.91 in 3.0 mi ESE 9.2 mph 18.4 mph 0.02 in Rain Light Rain
4:12 PM 64.4 °F 60.8 °F 88% 29.91 in 2.5 mi SE 8.1 mph - 0.07 in Rain Rain
4:20 PM 62.6 °F 60.8 °F 94% 29.90 in 1.2 mi ESE 5.8 mph - 0.16 in Rain Heavy Rain
4:24 PM 62.6 °F 60.8 °F 94% 29.90 in 2.0 mi SE 4.6 mph - 0.16 in Rain Light Rain
4:32 PM 62.6 °F 62.6 °F 100% 29.90 in 2.0 mi Calm Calm - 0.21 in Rain Heavy Rain
4:39 PM 62.6 °F 62.6 °F 100% 29.90 in 1.5 mi Calm Calm - 0.25 in Rain Heavy Rain
4:48 PM 64.4 °F 62.6 °F 94% 29.90 in 1.0 mi ESE 8.1 mph - 0.35 in Rain Heavy Rain
4:58 PM 64.9 °F 63.0 °F 93% 29.88 in 0.8 mi NE 9.2 mph - 0.53 in Rain Heavy Rain
5:02 PM 64.4 °F 62.6 °F 94% 29.89 in 1.2 mi Variable 6.9 mph - 0.00 in Rain Light Rain
5:05 PM 64.4 °F 64.4 °F 100% 29.89 in 4.0 mi SE 8.1 mph - 0.00 in Rain Light Rain
5:30 PM 66.2 °F 62.6 °F 88% 29.89 in 6.0 mi SSE 6.9 mph - 0.00 in   Scattered Clouds
5:58 PM 68.0 °F 62.1 °F 81% 29.88 in 8.0 mi SE 6.9 mph - 0.00 in   Partly Cloudy
6:58 PM 68.0 °F 63.0 °F 84% 29.89 in 9.0 mi SE 10.4 mph - N/A   Scattered Clouds
7:08 PM 66.2 °F 62.6 °F 88% 29.89 in 9.0 mi SE 12.7 mph 17.3 mph N/A   Mostly Cloudy
7:23 PM 66.2 °F 62.6 °F 88% 29.89 in 8.0 mi SE 8.1 mph - N/A   Scattered Clouds
7:58 PM 66.9 °F 63.0 °F 87% 29.89 in 7.0 mi SE 6.9 mph - N/A   Clear
8:58 PM 68.0 °F 64.9 °F 90% 29.91 in 9.0 mi SE 9.2 mph - N/A   Overcast
9:58 PM 68.0 °F 64.0 °F 87% 29.91 in 10.0 mi ESE 6.9 mph - N/A   Overcast
10:29 PM 64.4 °F 60.8 °F 88% 29.92 in 1.0 mi East 18.4 mph 71.3 mph 0.39 in Rain Rain
10:38 PM 64.4 °F 62.6 °F 94% 29.91 in 1.5 mi SSE 9.2 mph 23.0 mph 0.47 in Rain Heavy Rain
10:41 PM 64.4 °F 62.6 °F 94% 29.91 in 3.0 mi SE 6.9 mph 19.6 mph 0.47 in Rain Rain
10:58 PM 66.0 °F 64.0 °F 93% 29.91 in 7.0 mi SSE 8.1 mph - 0.48 in Rain Light Rain
11:58 PM 63.0 °F 62.1 °F 97% 29.91 in 10.0 mi West 5.8 mph - 0.02 in   Overcast